Location: Newark
(59.4564°N, 26.6917°E)
Time: 08:22:42
(UTC+00:00)

A-11 Canister half - Visible Passes

Search period start: 17 November 2019 00:00
Search period end: 27 November 2019 00:00
Orbit: 1514 x 1686 km, 47.2° (Epoch: 16 November)

Date Brightness Start Highest point End Pass type
(mag) Time Alt. Az. Time Alt. Az. Time Alt. Az.
17 Nov 10.7 14:55:21 10° SSE 14:59:35 13° SE 15:03:50 10° ESE visible
17 Nov 9.9 16:53:32 10° SSW 17:01:52 31° SSE 17:03:50 29° SE visible
17 Nov 10.0 18:55:53 10° WSW 19:02:02 34° SSW 19:02:02 34° SSW visible
17 Nov 11.1 20:59:39 10° W 21:00:14 12° W 21:00:14 12° W visible
18 Nov 10.7 14:33:10 10° SSE 14:36:49 12° SE 14:40:30 10° ESE visible
18 Nov 10.0 16:30:48 10° SSW 16:39:02 30° SSE 16:42:12 25° ESE visible
18 Nov 9.8 18:33:01 10° WSW 18:40:24 38° SSW 18:40:24 38° SSW visible
18 Nov 10.9 20:36:44 10° W 20:38:36 16° WSW 20:38:36 16° WSW visible
19 Nov 10.1 16:08:05 10° SSW 16:16:12 29° SSE 16:20:33 21° ESE visible
19 Nov 9.6 18:10:10 10° WSW 18:18:44 41° S 18:18:44 41° S visible
19 Nov 10.6 20:13:49 10° W 20:16:56 21° WSW 20:16:56 21° WSW visible
20 Nov 10.2 15:45:23 10° SSW 15:53:22 28° SSE 15:58:51 17° ESE visible
20 Nov 9.6 17:47:20 10° SW 17:56:30 41° S 17:57:03 40° SSE visible
20 Nov 10.4 19:50:55 10° WSW 19:55:15 26° WSW 19:55:15 26° WSW visible
21 Nov 10.2 15:22:42 10° SSW 15:30:33 27° SE 15:37:10 14° E visible
21 Nov 9.6 17:24:29 10° SW 17:33:37 40° S 17:35:21 38° SSE visible
21 Nov 10.2 19:28:00 10° WSW 19:33:33 30° SW 19:33:33 30° SW visible
22 Nov 10.3 15:00:01 10° SSW 15:07:43 26° SE 15:15:27 10° E visible
22 Nov 9.7 17:01:40 10° SW 17:10:46 40° SSE 17:13:39 34° SE visible
22 Nov 10.0 19:05:07 10° WSW 19:11:51 35° SW 19:11:51 35° SW visible
22 Nov 11.1 21:09:38 10° W 21:10:02 11° W 21:10:02 11° W visible
23 Nov 10.4 14:37:21 10° SSW 14:44:54 25° SE 14:52:30 10° E visible
23 Nov 9.8 16:38:50 10° SW 16:47:53 39° SSE 16:51:57 29° SE visible
23 Nov 9.8 18:42:13 10° WSW 18:50:08 38° SSW 18:50:08 38° SSW visible
23 Nov 11.0 20:46:39 10° W 20:48:19 15° WSW 20:48:19 15° WSW visible
24 Nov 10.5 14:14:43 10° S 14:22:05 24° SE 14:29:32 10° E visible
24 Nov 9.8 16:16:01 10° SW 16:25:02 39° SSE 16:30:14 24° ESE visible
24 Nov 9.7 18:19:20 10° WSW 18:28:26 40° S 18:28:26 40° S visible
24 Nov 10.8 20:23:41 10° W 20:26:37 18° WSW 20:26:37 18° WSW visible
25 Nov 9.9 15:53:12 10° SW 16:02:09 38° SSE 16:08:32 19° ESE visible
25 Nov 9.7 17:56:27 10° WSW 18:05:35 40° S 18:06:44 39° S visible
25 Nov 10.6 20:00:43 10° W 20:04:55 22° WSW 20:04:55 22° WSW visible
26 Nov 10.0 15:30:24 10° SW 15:39:17 38° SSE 15:46:51 15° ESE visible
26 Nov 9.7 17:33:34 10° WSW 17:42:43 41° S 17:45:03 36° SSE visible
26 Nov 10.4 19:37:47 10° W 19:43:14 25° SW 19:43:14 25° SW visible
